Lapse_Rate
7.2 7.1 6.7 6.3 6.1 6.2 6.0 5.9 5.8 5.8 5.6 5.7 5.7 5.8 5.8 5.6 5.6 5.5 5.4 5.4 5.2 5.4 5.0 5.3 5.6 5.8 6.0 6.3 6.5 6.4 6.4 6.4 6.3 6.4 6.4 6.4 6.3 6.3 6.2 6.1 6.1 6.1 6.1
7.2 7.2 7.0 6.7 6.3 6.2 6.0 6.0 5.9 5.7 5.6 5.7 5.6 5.6 5.8 5.6 5.6 5.5 5.6 5.6 5.6 5.4 5.1 5.1 5.4 5.7 5.9 6.2 6.4 6.4 6.4 6.4 6.3 6.3 6.4 6.3 6.3 6.3 6.2 6.2 6.2 6.2 6.2
7.2 7.1 7.1 6.9 6.6 6.3 6.1 6.3 6.2 6.0 6.1 5.9 5.7 5.6 5.7 5.8 5.6 5.4 5.4 5.5 5.5 5.3 5.1 5.4 5.0 5.3 5.8 6.1 6.2 6.3 6.3 6.3 6.3 6.2 6.4 6.3 6.2 6.2 6.3 6.2 6.2 6.2 6.2
7.2 7.2 7.2 7.0 6.8 6.7 6.5 6.5 6.5 6.3 6.2 6.1 6.0 5.8 5.7 5.7 5.6 5.5 5.6 5.7 5.8 5.6 5.6 5.5 4.9 5.0 5.4 6.0 6.2 6.2 6.3 6.3 6.3 6.2 6.3 6.4 6.3 6.2 6.2 6.2 6.1 6.1 6.1
7.4 7.2 7.2 7.1 6.9 6.9 6.8 6.7 6.6 6.5 6.3 6.2 6.1 6.1 5.9 5.8 5.7 5.6 5.5 5.7 5.7 5.6 5.5 5.5 5.3 5.0 5.1 5.7 6.4 6.3 6.2 6.2 6.3 6.1 6.2 6.3 6.3 6.1 6.1 6.3 6.1 6.0 5.9
7.5 7.2 7.2 7.2 7.1 7.0 6.9 6.8 6.7 6.5 6.4 6.2 6.1 6.1 6.0 6.0 6.0 6.0 5.8 5.9 5.7 5.8 5.5 5.4 5.4 5.0 4.8 5.3 5.9 6.5 6.2 6.2 6.3 6.0 6.0 6.1 6.2 6.1 6.1 6.1 6.1 5.9 5.8
7.4 7.3 7.2 7.2 7.2 7.1 6.9 6.7 6.7 6.6 6.5 6.3 6.1 6.3 6.3 6.1 6.2 6.2 6.0 6.0 6.1 5.9 5.8 5.4 5.3 4.9 4.9 5.0 5.6 6.4 6.6 6.1 6.3 6.0 6.0 6.0 6.1 6.1 6.0 5.9 6.0 5.7 5.7
7.1 7.2 7.4 7.1 7.0 7.1 6.9 6.8 6.8 6.7 6.6 6.3 6.2 6.2 6.4 6.4 6.2 6.2 6.1 6.0 6.1 5.8 5.8 5.7 5.4 5.3 5.2 5.2 5.4 5.8 6.7 6.1 6.2 6.2 6.1 6.0 6.1 6.0 6.1 5.8 5.8 5.7 5.6
7.3 7.4 7.4 7.2 7.0 7.0 7.0 6.9 6.9 6.7 6.7 6.6 6.3 6.1 6.4 6.6 6.5 6.1 6.0 5.9 5.8 5.9 5.7 5.6 5.5 5.3 5.0 5.6 5.3 5.6 6.7 6.3 6.1 6.2 6.1 6.1 6.1 5.9 6.0 6.0 5.8 5.7 5.6
7.3 7.2 7.1 7.0 7.0 7.1 7.2 7.1 7.0 6.7 6.6 6.7 6.5 6.5 6.4 6.3 6.3 6.5 6.5 6.1 5.6 5.6 5.7 5.6 5.3 5.4 5.2 5.2 5.6 5.7 6.6 6.2 6.1 6.0 6.1 6.1 6.1 5.9 5.8 5.6 5.6 5.5 5.6
7.6 7.2 6.8 7.0 7.2 7.2 7.1 7.2 7.1 6.9 6.7 6.6 6.6 6.6 6.4 6.2 6.0 6.1 5.8 6.7 5.9 5.9 5.7 5.7 5.5 5.5 5.3 5.2 5.5 5.8 6.2 6.4 6.3 6.2 6.1 6.1 6.1 6.0 5.9 5.8 5.5 5.5 5.6
7.7 7.4 6.9 7.3 7.3 7.1 7.1 7.0 7.0 7.0 6.9 6.8 6.8 6.6 6.6 6.5 6.5 6.0 5.9 5.6 5.8 5.9 5.8 5.7 5.8 5.5 5.4 5.0 5.7 5.6 5.7 6.4 6.5 6.3 6.0 6.0 6.1 6.0 6.0 5.7 5.6 5.6 5.5
7.5 7.4 7.6 7.6 7.3 6.9 6.9 6.9 6.9 6.9 6.9 7.0 6.9 6.7 6.5 6.5 6.4 6.1 5.9 5.2 5.4 5.4 5.6 5.5 5.5 5.3 5.3 5.4 4.9 5.4 5.5 5.9 6.0 6.2 6.1 6.1 6.2 6.0 5.9 5.6 5.6 5.5 5.4
7.6 7.1 7.5 6.9 6.8 7.0 6.8 6.9 6.7 6.7 6.9 7.0 6.9 6.8 6.7 6.7 6.3 6.1 5.8 5.2 5.2 5.4 5.6 5.7 5.5 5.3 5.2 5.3 5.4 5.1 5.4 5.6 5.7 5.8 5.8 5.7 5.9 6.0 5.8 5.6 5.6 5.4 5.3
7.4 7.4 7.5 7.1 6.9 7.1 6.8 6.7 6.6 6.7 6.8 7.0 7.0 6.8 6.7 6.8 6.5 6.1 5.9 5.4 5.3 5.3 5.4 5.8 5.8 5.8 5.5 5.2 5.1 4.9 5.1 5.5 5.7 5.7 5.7 5.6 5.6 5.5 5.6 5.6 5.5 5.4 5.3
7.1 7.2 7.1 7.1 7.1 6.9 6.7 6.7 6.7 6.8 6.6 6.8 7.0 6.8 6.8 6.8 6.4 6.1 5.8 5.7 5.4 5.2 5.4 5.5 5.7 5.5 5.4 5.3 5.2 4.7 5.0 5.1 5.4 5.4 5.6 5.1 5.1 5.3 5.4 5.4 5.4 5.2 5.3
6.8 6.7 6.8 7.1 7.0 6.7 6.5 6.7 6.6 6.7 6.7 6.6 6.8 7.0 6.8 6.7 6.4 6.1 5.7 5.5 5.2 5.1 5.1 5.6 5.5 5.5 5.5 5.3 5.0 4.7 4.8 5.0 5.1 5.1 5.0 5.1 5.2 5.2 5.4 5.4 5.4 5.4 5.4
7.1 7.1 6.9 6.9 6.6 6.6 6.6 6.4 6.3 6.4 6.4 6.5 6.6 6.7 6.7 6.7 6.6 6.1 5.8 5.7 5.3 5.4 5.2 5.5 5.7 5.6 5.2 5.3 5.1 5.0 4.7 4.4 4.6 4.6 5.3 5.5 5.3 5.2 5.3 5.3 4.7 4.9 5.3
7.6 7.5 7.2 6.9 6.8 6.6 6.7 6.3 6.1 6.1 6.1 6.3 6.4 6.1 6.7 6.6 6.9 6.4 5.9 5.6 5.5 5.5 5.5 5.6 5.3 5.4 5.0 5.2 5.0 5.0 4.7 4.1 4.6 4.8 5.2 5.2 5.1 5.0 5.0 5.1 4.6 4.6 4.8
7.5 7.5 7.4 7.2 6.9 6.7 6.5 6.2 5.9 5.9 5.8 5.9 6.0 5.7 6.3 6.8 7.0 6.7 6.4 5.8 5.5 5.5 5.5 5.2 5.2 5.3 5.2 5.1 5.0 5.1 4.8 4.5 4.7 4.9 4.9 5.0 4.9 4.9 4.6 4.8 4.8 4.9 5.0
6.5 6.0 6.1 6.3 6.3 6.2 6.2 6.2 6.1 6.1 6.2 5.7 5.4 5.8 6.1 6.7 6.9 6.6 6.5 6.2 5.6 5.6 5.6 5.2 5.2 5.3 5.2 5.1 5.1 5.3 5.2 4.7 4.8 4.8 4.9 5.1 5.0 5.1 5.1 5.2 5.2 5.3 5.4
5.7 5.9 5.8 6.1 6.0 5.9 6.0 6.2 6.2 6.2 5.7 5.3 5.4 6.0 5.9 6.6 6.6 6.5 6.4 6.1 5.9 5.7 5.9 5.4 5.3 5.2 5.1 5.2 5.2 5.3 5.3 5.2 5.1 5.3 5.3 5.3 5.3 5.4 5.3 5.4 5.5 5.5 5.6
5.7 5.7 5.8 6.0 6.0 6.0 6.3 6.4 6.2 6.2 5.8 4.8 5.1 5.4 5.6 6.3 6.4 6.4 6.4 6.2 5.8 5.7 5.6 5.9 5.3 5.5 5.2 5.3 5.3 5.1 5.2 5.4 5.4 5.4 5.4 5.5 5.4 5.2 5.4 5.4 5.5 5.7 5.6
5.6 5.5 5.6 5.8 5.9 6.0 6.2 6.0 5.9 5.9 5.5 5.4 5.4 5.4 5.8 6.1 6.2 6.6 6.6 6.4 6.1 5.6 5.6 5.8 5.8 5.4 5.3 5.4 5.5 5.4 5.3 5.5 5.7 5.6 5.4 5.6 5.6 5.5 5.4 5.5 5.5 5.5 5.6
5.6 5.5 5.4 5.5 5.5 5.5 5.4 5.5 5.6 5.5 5.2 5.4 5.6 5.6 6.0 5.8 6.3 6.9 6.6 6.2 6.1 6.0 5.8 5.8 5.7 5.4 5.5 5.7 5.6 5.5 5.5 5.4 5.7 5.8 5.9 5.7 5.6 5.6 5.7 5.7 5.5 5.6 5.6
5.3 5.3 5.3 5.4 5.4 5.5 5.6 5.7 5.8 5.4 5.5 5.4 5.3 5.4 5.7 6.0 6.2 6.4 6.2 6.3 6.1 6.0 5.8 5.8 6.0 5.8 5.9 5.6 5.6 5.7 5.5 5.6 5.6 5.8 5.8 5.7 5.6 5.8 5.7 5.6 5.4 5.4 5.5
Wind_Speed
9 10 10 11 12 12 11 10 9 8 9 10 11 10 8 8 9 9 12 20 20 18 17 18 16 16 16 16 16 16 16 17 16 15 15 14 15 16 15 14 13 12 12
8 7 9 8 10 12 11 11 9 7 7 8 7 9 8 7 7 8 9 15 20 17 19 19 19 18 17 16 17 19 18 18 18 17 15 15 16 16 16 14 13 13 12
13 9 7 8 10 12 11 10 9 9 6 6 7 7 7 6 6 7 8 8 11 19 14 13 15 18 18 18 18 18 17 17 18 18 17 15 16 15 15 13 13 13 12
17 11 7 7 12 10 9 8 7 7 6 6 6 5 5 6 7 8 8 8 13 14 16 16 18 18 18 19 21 18 16 16 18 18 17 15 15 16 15 15 15 14 13
17 11 7 7 12 6 6 8 7 8 7 7 6 5 4 5 6 7 8 10 13 16 14 19 20 21 21 21 22 21 18 18 18 19 19 17 16 16 16 16 15 13 13
18 12 7 8 10 7 6 7 10 8 6 7 6 5 5 5 5 6 7 10 13 16 17 14 16 17 23 23 22 23 21 20 19 19 20 20 19 18 18 17 16 15 14
17 12 7 8 8 8 8 9 6 10 6 7 4 3 4 6 7 7 7 7 11 14 16 15 14 15 19 23 24 23 23 23 23 21 21 22 21 20 21 19 17 16 16
16 13 11 9 10 7 9 10 10 4 5 8 3 2 2 3 4 8 7 7 10 12 12 15 14 18 17 19 21 25 23 24 25 23 21 22 22 22 21 21 20 18 17
16 14 13 11 10 9 8 9 10 11 6 6 7 3 2 4 3 4 8 7 10 7 9 16 15 16 19 18 19 24 28 25 25 24 25 22 22 23 22 21 20 19 18
15 15 15 14 12 9 10 9 9 9 8 7 6 7 4 2 3 2 2 7 9 10 10 10 14 17 19 19 20 22 26 27 24 24 24 25 26 24 22 21 21 20 20
13 15 15 15 12 11 12 12 11 12 10 10 8 4 11 7 7 3 3 3 6 8 9 9 12 15 18 19 19 22 29 28 28 26 25 25 25 26 25 24 23 22 24
10 14 15 13 13 12 14 12 12 14 12 11 9 6 8 5 5 5 5 4 9 6 9 9 9 13 18 19 21 23 27 32 32 31 28 26 25 26 25 25 26 26 25
9 15 15 14 12 13 12 12 13 13 12 10 11 9 9 8 8 9 8 6 4 4 5 9 10 15 17 20 24 27 28 32 32 32 31 30 28 26 24 25 26 25 26
9 9 11 12 13 13 13 12 10 11 13 12 15 12 9 10 9 8 8 9 5 5 5 10 10 11 17 19 22 28 24 30 33 34 34 34 32 31 30 28 26 24 24
8 11 12 13 14 14 13 13 11 12 11 12 11 12 10 8 8 9 10 10 11 6 9 9 6 12 16 18 20 22 24 25 34 35 36 36 35 33 33 32 31 29 28
9 10 12 12 11 12 12 12 11 12 12 10 9 11 10 8 9 8 10 10 9 10 8 11 10 6 13 14 18 23 23 24 29 34 35 35 35 34 33 31 31 31 31
8 9 11 10 11 11 11 11 12 11 14 12 10 11 11 11 8 7 8 9 10 10 8 2 5 4 12 12 10 18 20 18 19 26 30 31 28 27 26 25 25 25 25
7 10 10 11 11 12 12 12 13 12 14 12 11 11 10 7 12 11 9 12 10 10 8 8 3 5 4 11 10 9 10 16 13 4 21 20 21 21 21 20 19 18 16
12 6 7 9 10 10 11 12 12 12 13 12 11 10 11 11 11 9 10 9 9 8 8 4 5 3 3 4 3 4 8 6 8 14 17 14 11 10 11 12 12 13 12
13 13 13 6 5 7 6 9 12 12 12 11 12 10 12 12 11 10 10 13 10 9 9 7 5 6 5 3 8 8 6 4 7 7 12 12 17 20 17 17 18 19 17
13 12 12 13 13 12 9 9 8 12 12 11 10 10 11 11 12 12 8 10 11 10 8 8 6 3 6 4 10 8 8 6 4 4 6 7 8 11 13 14 16 18 19
13 15 14 12 12 8 15 14 9 6 8 10 9 9 9 9 11 13 14 14 15 14 12 10 9 10 11 8 6 6 5 3 4 9 4 3 5 5 9 11 17 20 20
14 15 15 14 13 13 19 16 15 10 11 7 5 2 4 1 5 5 10 11 12 11 2 11 13 11 11 11 9 8 11 9 5 6 5 3 2 6 9 16 18 18 19
14 13 15 15 13 14 22 15 17 12 12 13 12 10 7 6 5 4 7 8 8 10 7 4 4 4 3 4 6 11 12 5 6 4 3 3 3 4 6 13 16 17 18
12 13 12 15 15 15 26 21 10 11 12 11 11 14 11 9 12 7 6 9 9 8 14 19 18 18 19 16 10 3 4 8 2 2 1 3 4 5 3 4 12 17 17
10 9 12 13 21 17 28 29 19 7 11 8 11 12 22 15 13 12 7 6 7 5 6 8 7 12 14 13 19 8 2 4 3 3 2 3 8 4 4 1 6 11 12
Wind_Direction
182 179 179 181 183 170 174 177 176 177 177 181 191 195 198 200 202 190 189 188 187 188 191 177 180 178 173 173 167 160 159 159 158 159 162 163 165 159 158 162 156 158 160
184 179 182 186 187 177 175 185 185 181 180 179 183 194 205 210 213 223 211 194 192 190 205 191 180 181 180 182 173 172 169 168 163 171 172 171 166 159 164 172 174 169 172
189 181 177 185 190 177 176 182 181 181 177 185 190 190 199 207 206 207 228 222 194 189 213 208 189 180 184 184 184 170 168 169 170 177 181 182 171 168 180 177 178 180 182
189 187 179 187 182 159 177 181 176 181 187 190 187 196 207 215 216 210 214 212 193 187 195 207 200 195 184 188 183 180 177 185 184 180 185 184 182 177 186 184 192 188 191
186 189 185 175 166 172 178 183 176 180 188 193 192 200 211 221 225 220 220 211 205 192 184 197 207 198 190 196 190 186 190 197 192 186 185 193 194 192 196 193 197 195 196
179 189 187 175 170 172 175 186 184 192 196 199 198 213 216 227 220 215 217 221 208 199 195 183 204 210 200 202 196 189 192 201 199 197 192 197 195 199 208 201 198 204 211
185 182 182 182 175 181 182 180 181 187 193 189 180 220 236 222 223 220 210 213 216 206 200 187 197 202 207 208 199 194 195 201 200 202 202 201 199 202 210 208 206 210 216
191 187 176 187 186 183 185 184 177 166 182 173 166 134 211 220 219 225 217 204 214 205 196 192 202 204 202 207 210 195 206 206 203 201 211 207 203 202 215 211 211 211 219
194 193 185 182 188 189 193 190 188 186 176 180 194 163 165 225 181 210 210 201 205 198 198 199 197 209 210 209 211 202 208 212 209 204 204 205 203 206 212 217 219 217 221
198 197 193 192 188 195 197 194 191 198 181 185 196 220 191 135 203 216 227 212 207 204 200 205 196 204 213 208 213 203 211 213 217 214 211 205 207 209 211 218 224 222 228
193 199 198 195 192 199 205 194 191 200 209 205 194 178 222 215 227 181 210 195 218 211 207 201 200 201 212 206 216 209 208 213 218 222 220 216 210 207 209 219 225 228 230
201 205 197 196 197 200 202 200 198 200 205 210 202 192 189 187 197 199 226 200 213 210 207 199 201 203 204 213 214 213 212 215 219 220 225 223 218 215 220 219 221 230 228
202 210 194 194 200 200 199 199 199 203 206 207 207 206 209 218 219 221 225 226 207 190 200 203 201 203 205 218 219 212 213 216 219 221 226 228 227 228 230 227 230 233 232
211 204 208 202 205 199 202 205 207 208 206 212 212 211 214 223 223 219 220 224 219 202 185 198 200 200 201 207 217 212 215 220 221 222 225 230 232 234 236 238 239 238 239
211 203 198 208 210 202 201 201 211 208 202 206 211 210 216 217 218 225 231 223 221 204 210 208 186 201 198 202 219 215 219 216 220 224 226 229 232 233 237 239 240 241 241
216 210 203 205 209 215 205 206 214 212 204 207 207 208 212 218 227 234 236 228 220 225 223 206 207 187 193 199 212 218 222 215 217 222 225 227 231 234 235 236 239 242 243
196 210 209 208 207 212 209 205 217 210 205 205 202 209 216 220 230 234 226 231 226 224 226 174 185 171 187 190 201 212 225 219 225 223 229 228 233 236 237 238 239 242 243
228 209 205 211 220 220 216 215 218 213 207 203 200 204 218 217 235 240 233 230 219 214 211 181 157 170 171 189 186 199 220 227 226 179 222 223 230 235 238 238 236 236 237
7 335 220 218 217 221 218 218 217 207 204 203 201 204 226 235 235 235 226 218 213 201 199 176 170 162 170 160 162 201 221 205 107 102 97 111 133 144 143 147 138 134 137
21 10 12 337 243 214 225 223 212 211 203 204 209 210 228 225 225 218 208 213 208 199 198 195 188 171 180 162 193 196 171 155 141 106 83 106 106 103 106 111 115 116 118
27 26 30 31 26 32 15 348 308 216 214 198 205 219 219 225 217 220 216 209 202 196 189 192 185 154 179 161 192 183 186 150 137 141 123 136 119 109 98 97 111 111 115
27 33 30 34 32 20 355 11 14 314 203 220 192 212 224 217 229 226 222 210 204 197 198 196 193 195 194 189 180 175 158 147 179 171 131 112 120 110 120 115 115 113 110
29 32 28 25 22 13 4 24 38 42 17 357 15 4 230 168 193 155 108 89 63 52 49 209 201 199 198 195 186 183 191 195 193 152 117 105 99 111 110 111 112 109 107
32 33 31 27 23 16 14 16 56 57 53 24 21 15 9 13 8 144 118 91 65 49 26 37 59 61 40 358 215 211 209 150 71 66 110 122 153 110 112 113 115 111 108
32 32 28 27 27 24 23 18 25 65 61 45 27 23 28 33 19 51 97 109 91 74 68 70 73 71 63 51 34 125 141 157 129 142 92 115 147 111 88 91 105 104 102
33 35 40 33 31 31 28 26 27 29 57 55 45 38 30 43 39 47 68 90 85 66 75 52 40 44 46 45 38 42 33 153 119 111 139 95 143 142 125 66 84 97 96